This is the latest recevied weather packets stored in our database for station/object AE0NK. If no packets are shown the sender has not sent any weather packets the latest 10 day(s).
| Time | Temp. | Humidity | Pressure | Rain* | Wind** | Luminosity | Snow |
|---|---|---|---|---|---|---|---|
| 1778113405 | 11.11° C | 36% | 1015.6 hPa | 0 mm | - | 65 W/m² | - |
| 1778113104 | 11.67° C | 38% | 1015.6 hPa | 0 mm | - | 81 W/m² | - |
| 1778112803 | 11.67° C | 35% | 1015.7 hPa | 0 mm | - | 97 W/m² | - |
| 1778112501 | 11.67° C | 37% | 1015.5 hPa | 0 mm | - | 107 W/m² | - |
| 1778112200 | 11.67° C | 34% | 1015.6 hPa | 0 mm | - | 123 W/m² | - |
| 1778111897 | 11.67° C | 35% | 1015.7 hPa | 0 mm | - | 142 W/m² | - |
| 1778111596 | 12.22° C | 35% | 1015.4 hPa | 0 mm | - | 158 W/m² | - |
| 1778111293 | 12.22° C | 34% | 1015.6 hPa | 0 mm | - | 171 W/m² | - |
| 1778110992 | 12.22° C | 36% | 1015.6 hPa | 0 mm | - | 186 W/m² | - |
| 1778110711 | 12.22° C | 34% | 1015.7 hPa | 0 mm | - | 134 W/m² | - |
| 1778110408 | 12.22° C | 37% | 1015.7 hPa | 0 mm | - | 76 W/m² | - |
| 1778110105 | 12.22° C | 34% | 1015.7 hPa | 0 mm | - | 69 W/m² | - |
| 1778109804 | 12.22° C | 35% | 1015.7 hPa | 0 mm | - | 76 W/m² | - |
| 1778109503 | 12.22° C | 36% | 1015.8 hPa | 0 mm | - | 77 W/m² | - |
| 1778109203 | 12.22° C | 38% | 1015.7 hPa | 0 mm | - | 188 W/m² | - |
| 1778108900 | 12.22° C | 38% | 1015.8 hPa | 0 mm | - | 329 W/m² | - |
| 1778108597 | 12.22° C | 36% | 1015.8 hPa | 0 mm | - | 56 W/m² | - |
| 1778108293 | 12.78° C | 34% | 1015.9 hPa | 0 mm | - | 113 W/m² | - |
| 1778107992 | 12.78° C | 34% | 1015.8 hPa | 0 mm | - | 383 W/m² | - |
| 1778107408 | 11.67° C | 36% | 1015.7 hPa | 0 mm | - | 457 W/m² | - |
| 1778107107 | 11.67° C | 39% | 1015.8 hPa | 0 mm | - | 167 W/m² | - |
| 1778106806 | 12.22° C | 35% | 1015.8 hPa | 0 mm | - | 113 W/m² | - |
| 1778106507 | 12.22° C | 37% | 1015.9 hPa | 0 mm | - | 396 W/m² | - |
| 1778106206 | 12.22° C | 36% | 1016 hPa | 0 mm | - | 186 W/m² | - |
| 1778105904 | 12.22° C | 35% | 1015.9 hPa | 0 mm | - | 160 W/m² | - |
* Rain latest hour (hover to see other rain measurements)
** Current wind speed in m/s (hover to see current wind gust speed)